Location: Ahausen
(50.4985°N, 8.2722°E)
Time: 16:02:12
(UTC+00:00)

Tiangong - Visible Passes

Search period start: 22 January 2022 00:00
Search period end: 01 February 2022 00:00
Orbit: 383 x 386 km, 41.5° (Epoch: 22 January)

Date Brightness Start Highest point End Pass type
(mag) Time Alt. Az. Time Alt. Az. Time Alt. Az.
29 Jan 3.6 18:02:00 10° S 18:03:06 11° SSE 18:03:14 11° SSE visible
30 Jan 3.7 18:37:31 10° SW 18:38:29 14° SSW 18:38:29 14° SSW visible
31 Jan 3.5 17:38:08 10° SSW 17:39:52 14° SSE 17:41:30 10° SE visible
